Location: Lalanga
(4.5882°N, 32.9072°E)
Time: 04:36:48
(UTC+00:00)

Cosmos 2237 Rocket - Pass Details

Date: 24 January 2020
Orbit: 837 x 848 km, 71.0° (Epoch: 19 February)

Event Time Altitude Azimuth Distance (km) Brightness Sun altitude
Rises 17:11:17 0° 330° (NNW) 3,373 5.5 -18.2°
Reaches altitude 10° 17:13:52 10° 323° (NW) 2,441 4.8 -18.8°
Maximum altitude 17:19:01 38° 255° (WSW) 1,245 3.6 -20.1°
Drops below altitude 10° 17:24:12 10° 188° (S) 2,452 4.9 -21.3°
Sets 17:26:49 0° 180° (S) 3,390 5.6 -21.9°
